Weather History for KSSC - October, 2012

Change the Weather History Date:

Wednesday, October 3, 2012

  Actual Average Record
Temperature  
Mean Temperature 78 °F -  
Max Temperature 82 °F 76 °F 87 °F (1996)
Min Temperature 73 °F 57 °F 41 °F (2003)
Cooling Degree Days 12    
Growing Degree Days 28 (Base 50)    
Moisture  
Dew Point 69 °F    
Average Humidity 80    
Maximum Humidity 96    
Minimum Humidity 51    
Precipitation  
Precipitation 0.00 in - - ()
Sea Level Pressure  
Sea Level Pressure 30.07 in    
Wind  
Wind Speed 5 mph (SSW)    
Max Wind Speed 8 mph    
Max Gust Speed -    
Visibility 10 miles    
Events      
Averages and records for this station are not official NWS values.
T = Trace of Precipitation, MM = Missing Value Source: NWS Daily Summary

Daily Weather History Graph

Daily Weather History Graph

Search for Another Location

Airport or City:

Trip Planner

Search our weather history database for the weather conditions in past years. The results will help you decide how hot, cold, wet, or windy it might be!

Date:

Astronomy

Oct. 03, 2012 Rise Set
Actual Time 7:18 AM EDT 7:02 PM EDT
Civil Twilight 6:53 AM EDT 7:27 PM EDT
Nautical Twilight 6:24 AM EDT 7:56 PM EDT
Astronomical Twilight 5:55 AM EDT 8:25 PM EDT
Moon 9:05 PM EDT (10/3) 10:29 AM EDT (10/3)
Length of Visible Light 12h 34m
Length of Day
11h 44m
Waning Gibbous, 89% of the Moon is Illuminated
Oct 3
Waning Gibbous
Oct 8
Last Quarter
Oct 15
New
Oct 21
First Quarter
Oct 29
Full

Hourly Weather History & Observations

Time (EDT) Temp. Heat Index Dew Point Humidity Pressure Visibility Wind Dir Wind Speed Gust Speed Precip Events Conditions
12:55 AM 75.0 °F - 71.1 °F 87% 29.98 in 10.0 mi South 5.8 mph - N/A   Mostly Cloudy
1:15 AM 75.2 °F - 71.6 °F 89% 29.99 in 10.0 mi SSE 4.6 mph - N/A   Mostly Cloudy
1:32 AM 75.2 °F - 71.6 °F 89% 29.98 in 10.0 mi South 4.6 mph - N/A   Mostly Cloudy
1:37 AM 75.2 °F - 71.6 °F 89% 29.99 in 10.0 mi South 3.5 mph - N/A   Mostly Cloudy
1:48 AM 75.2 °F - 71.6 °F 89% 29.99 in 10.0 mi South 4.6 mph - N/A   Overcast
1:55 AM 74.8 °F - 72.1 °F 91% 29.98 in 10.0 mi South 5.8 mph - N/A   Overcast
2:23 AM 75.2 °F - 71.6 °F 89% 29.98 in 10.0 mi South 5.8 mph - N/A   Mostly Cloudy
2:55 AM 74.3 °F - 71.6 °F 91% 29.99 in 10.0 mi South 4.6 mph - N/A   Partly Cloudy
3:55 AM 74.1 °F - 71.4 °F 91% 30.00 in 10.0 mi SW 3.5 mph - N/A   Overcast
3:56 AM 73.4 °F - 71.6 °F 94% 30.00 in 10.0 mi SSW 4.6 mph - N/A   Overcast
3:57 AM 73.4 °F - 71.6 °F 94% 30.00 in 10.0 mi SSW 4.6 mph - N/A   Overcast
4:39 AM 73.4 °F - 71.6 °F 94% 30.00 in 10.0 mi SSW 4.6 mph - N/A   Overcast
4:55 AM 74.3 °F - 71.6 °F 91% 30.01 in 10.0 mi SSW 4.6 mph - N/A   Overcast
5:21 AM 73.4 °F - 71.6 °F 94% 30.01 in 10.0 mi South 3.5 mph - N/A   Overcast
5:23 AM 73.4 °F - 71.6 °F 94% 30.01 in 10.0 mi South 3.5 mph - N/A   Overcast
5:55 AM 73.8 °F - 71.6 °F 93% 30.02 in 10.0 mi South 4.6 mph - N/A   Mostly Cloudy
5:59 AM 73.4 °F - 71.6 °F 94% 30.02 in 10.0 mi South 3.5 mph - N/A   Mostly Cloudy
6:09 AM 73.4 °F - 71.6 °F 94% 30.03 in 10.0 mi Calm Calm - N/A   Mostly Cloudy
6:23 AM 73.4 °F - 71.6 °F 94% 30.03 in 10.0 mi South 3.5 mph - N/A   Overcast
6:55 AM 73.6 °F - 71.8 °F 94% 30.04 in 10.0 mi South 3.5 mph - N/A   Overcast
7:55 AM 73.4 °F - 72.1 °F 96% 30.05 in 8.0 mi Calm Calm - N/A   Overcast
8:55 AM 74.3 °F - 72.3 °F 94% 30.08 in 10.0 mi SSW 6.9 mph - N/A   Overcast
8:59 AM 75.2 °F - 71.6 °F 89% 30.08 in 10.0 mi SW 6.9 mph - N/A   Overcast
9:06 AM 75.2 °F - 71.6 °F 89% 30.08 in 5.0 mi SW 8.1 mph - N/A   Mostly Cloudy
9:55 AM 75.6 °F - 69.6 °F 82% 30.10 in 10.0 mi WSW 6.9 mph - N/A   Mostly Cloudy
10:22 AM 77.0 °F - 68.0 °F 74% 30.09 in 10.0 mi WSW 5.8 mph - N/A   Overcast
10:55 AM 77.7 °F - 67.6 °F 71% 30.11 in 10.0 mi WSW 5.8 mph - N/A   Mostly Cloudy
11:25 AM 78.8 °F - 68.0 °F 69% 30.11 in 10.0 mi Variable 3.5 mph - N/A   Mostly Cloudy
11:39 AM 78.8 °F - 66.2 °F 65% 30.12 in 10.0 mi Variable 4.6 mph - N/A   Mostly Cloudy
11:46 AM 78.8 °F - 66.2 °F 65% 30.12 in 10.0 mi West 4.6 mph - N/A   Mostly Cloudy
11:55 AM 79.2 °F - 66.6 °F 65% 30.12 in 10.0 mi West 4.6 mph - N/A   Overcast
12:55 PM 82.4 °F 83.5 °F 63.1 °F 52% 30.11 in 10.0 mi Variable 5.8 mph - N/A   Mostly Cloudy
1:55 PM 81.3 °F 82.5 °F 62.8 °F 53% 30.09 in 10.0 mi West 5.8 mph - N/A   Scattered Clouds
2:55 PM 80.6 °F 81.7 °F 61.9 °F 53% 30.10 in 10.0 mi SW 5.8 mph - N/A   Scattered Clouds
3:55 PM 81.3 °F 82.2 °F 61.3 °F 51% 30.09 in 10.0 mi SW 4.6 mph - N/A   Scattered Clouds
4:55 PM 80.8 °F 81.8 °F 61.7 °F 52% 30.10 in 10.0 mi South 5.8 mph - N/A   Partly Cloudy
5:55 PM 79.2 °F - 62.8 °F 57% 30.11 in 10.0 mi South 3.5 mph - N/A   Partly Cloudy
6:55 PM 77.2 °F - 65.8 °F 68% 30.12 in 10.0 mi South 3.5 mph - N/A   Scattered Clouds
7:55 PM 75.4 °F - 67.1 °F 75% 30.13 in 10.0 mi Calm Calm - N/A   Mostly Cloudy
8:55 PM 74.8 °F - 66.7 °F 76% 30.15 in 10.0 mi SSW 3.5 mph - N/A   Mostly Cloudy
9:55 PM 73.6 °F - 65.8 °F 77% 30.17 in 10.0 mi South 3.5 mph - N/A   Mostly Cloudy
10:41 PM 75.2 °F - 66.2 °F 73% 30.19 in 10.0 mi SW 4.6 mph - N/A   Light Drizzle
10:50 PM 73.4 °F - 66.2 °F 78% 30.19 in 10.0 mi WSW 5.8 mph - N/A   Partly Cloudy
10:55 PM 74.1 °F - 66.2 °F 76% 30.19 in 10.0 mi WSW 5.8 mph - 0.00 in   Partly Cloudy
11:52 PM 73.4 °F - 66.2 °F 78% 30.19 in 10.0 mi West 3.5 mph - N/A   Light Drizzle
11:55 PM 73.4 °F - 65.8 °F 77% 30.19 in 10.0 mi West 4.6 mph - 0.00 in   Light Drizzle